User: anonymous   Login
Location: Unspecified
(0.0000°N, 0.0000°E)
Time: 02:56:32
(UTC+00:00)
Language:

TBA - TO BE ASSIGNED - Orbit

View from above orbital plane
View from above orbital plane
View from above satellite
View from above satellite

Ground track
Ground track

The orbit is defined by the following mean orbital elements,

1 68484U          26145.58335647 +.00000000 +00000-0 -17009-2 0 00002
2 68484  97.7627 104.3851 0003807  61.3846  55.7472 15.02460035    04
Epoch (UTC): 25 May 2026 14:00:01
Eccentricity: 0.0003807
inclination: 97.7627°
perigee height: 557 km
apogee height: 562 km
right ascension of ascending node: 104.3851°
argument of perigee: 61.3846°
revolutions per day: 15.02460035
mean anomaly at epoch: 55.7472°

The dashed part of the orbit path shows where the satellite is in the earth's shadow,  

DLR